Regional Weather Roundup
Issued by NWS

Home | Current Version | Previous Version | Text Only | Print | Product List | Glossary On
Versions: 1 2 3 4 5 6 7 8 9 10 11 12 13 14 15 16 17 18 19 20 21 22 23 24 25 26 27 28 29 30 31 32 33 34 35 36 37 38 39 40 41 42 43 44 45 46 47 48 49 50
598
ASUS45 KTFX 070110
RWRMT
MONTANA REGIONAL WEATHER ROUNDUP
NATIONAL WEATHER SERVICE GREAT FALLS MT
600 PM MST SAT FEB 06 2016

NOTE: "FAIR" INDICATES FEW OR NO CLOUDS BELOW 12000 FEET WITH NO
SIGNIFICANT WEATHER AND/OR OBSTRUCTIONS TO VISIBILITY.

MTZ001>007-043-070200-
WEST OF THE DIVIDE

CITY           SKY/WX    TMP DP  RH WIND       PRES   REMARKS
KALISPELL      PTCLDY    38  15  39 W20       30.25R WCI  28
MISSOULA       CLOUDY    37  25  61 N10       30.34R WCI  30
BUTTE          CLOUDY    34  13  41 W9G23     30.18R WCI  27
MULLAN PASS    CLOUDY    23  21  92 VRB7      30.25R WCI  15
ANACONDA         N/A     36   9  32 W14G26    30.19R WCI  27
DEER LODGE       N/A     30  23  74 NW13G18   30.22R WCI  20
HAMILTON         N/A     41  14  33 SE9G18    30.31R
LIBBY            N/A     41  18  38 NW5G16    30.31R
PLAINS           N/A     40  24  53 S5        30.31
$$

MTZ008-052>055-070200-
SOUTHWEST MONTANA

CITY           SKY/WX    TMP DP  RH WIND       PRES   REMARKS
BOZEMAN        CLOUDY    34  19  54 NW7       30.17R WCI  28
DILLON         CLOUDY    38  21  50 W21       30.21R WCI  28
ENNIS          PTCLDY    36  18  48 S12G18    30.26R WCI  27
TWIN BRIDGES     N/A     40  16  38 SW6       30.17R
$$

MTZ009-010-012-014-046-048-049-054-070200-
EAST SLOPES AND CENTRAL MONTANA

CITY           SKY/WX    TMP DP  RH WIND       PRES   REMARKS
CUT BANK       PTCLDY    32  15  49 W22G31    30.08R WCI  19
GREAT FALLS    MOCLDY    36  16  44 W17G31    30.11R WCI  26
MALMSTROM AFB  PTCLDY    36  16  44 NW7       30.12R WCI  30
HELENA         CLOUDY    37  22  54 W16G32    30.19R WCI  28
CHOTEAU          N/A     34  18  51 NW14G20   30.12R WCI  24
CONRAD           N/A     35  20  55 SW17      30.10R WCI  25
$$

MTZ011-013-016-021-045-047-050-051-070200-
NORTH CENTRAL MONTANA

CITY           SKY/WX    TMP DP  RH WIND       PRES   REMARKS
HAVRE          CLOUDY    41  20  43 W24G30    30.01R
LEWISTOWN      CLEAR     33  19  56 W17       30.06R WCI  22
N BAR RANCH      N/A     32  16  51 NW18G30   30.05R WCI  20
CHINOOK          N/A     37  30  75 CALM      30.01R
$$

MTZ017>020-022>027-061-062-070200-
NORTHEAST MONTANA

CITY           SKY/WX    TMP DP  RH WIND       PRES   REMARKS
GLASGOW        PTCLDY    36  28  73 W24G37    29.90R WCI  24
JORDAN           N/A     36  29  75 NW26      29.99R WCI  24
SIDNEY         CLOUDY    39  27  60 W31G40    29.79R WCI  27
WOLF POINT     CLEAR     39  30  70 W25G38    29.87R WCI  28
PLENTYWOOD       N/A     37  25  60 W22G33    29.73R WCI  27
POPLAR           N/A     36  28  75 W17G23    29.84R WCI  25
SCOBEY           N/A     37  17  44 W22       29.78  WCI  26
$$

MTZ028>42-056>058-070200-
SOUTHCENTRAL AND SOUTHEAST MONTANA

CITY           SKY/WX    TMP DP  RH WIND       PRES   REMARKS
BAKER          CLOUDY    40  23  50 NW28G39   29.89R
BILLINGS       CLOUDY    41  12  30 NW29G39   30.05R
LIVINGSTON     CLOUDY    37  14  38 NW13      30.14R WCI  29
MILES CITY     CLEAR     41  23  48 NW22G31   29.97R
EKALAKA          N/A     39  17  41 W26       29.91R WCI  28
FORSYTH          N/A     43  18  36 W15G23    30.03R
LAUREL           N/A     41  12  30 W21       30.04R
ROUNDUP          N/A     38   9  30 W10       29.97R WCI  31
$$

REGIONAL REPORTS...DAKOTAS

CITY           SKY/WX    TMP DP  RH WIND       PRES   REMARKS
WILLISTON      CLOUDY    41  31  67 W17G24    29.73R
MINOT          LGT RAIN  44  31  60 W28G37    29.58R
DICKINSON      MOCLDY    40  23  50 W26G36    29.75R
BEACH            N/A     37  25  60 W28G39    29.86R WCI  25
CROSBY         CLOUDY    36  36 100 W23G29    29.66R WCI  24
TIOGA          MOCLDY    34  34 100 W23G32    29.71R WCI  22
WATFORD CITY   CLOUDY    41  30  65 W17G29    29.74R
BISMARCK       CLEAR     47  23  38 W12       29.70S
GRAND FORKS    CLOUDY    40  32  73 SW13      29.52F
FARGO          MOCLDY    39  32  76 SW12      29.64F WCI  32
BUFFALO SD       N/A     43  20  39 NW35G47   29.83R
RAPID CITY     CLOUDY    39  27  62 NW38G53   29.93R WCI  26
$$

REGIONAL REPORTS...WYOMING/IDAHO/WASHINGTON

CITY           SKY/WX    TMP DP  RH WIND       PRES   REMARKS
GILLETTE       CLOUDY    36  21  54 NW16      30.03R WCI  26
SHERIDAN       CLOUDY    39  25  56 N10       30.04R
BUFFALO WY     CLOUDY    35  24  64 N20G32    30.03R WCI  24
CODY           CLOUDY    41  16  36 SW17G28   30.08S
YELLOWSTONE LA   N/A     21  15  78 CALM      30.25R
IDAHO FALLS    CLOUDY    28  21  75 NW5       30.37R
SALMON         CLOUDY    27  19  74 CALM      30.32R
BOISE          CLOUDY    41  32  70 NW7       30.43R
SPOKANE        CLOUDY    37  31  78 SW12      30.38R WCI  29
$$

REGIONAL REPORTS...ALBERTA

CITY           SKY/WX    TMP DP  RH WIND       PRES   REMARKS
EDMONTON       MOCLDY    34  21  60 NW25G41   29.91R WCI  21
CALGARY        PTCLDY    36   3  25 W21G28    30.00R WCI  24
LETHBRIDGE     PTCLDY    37  10  32 W30G44    30.05R WCI  25
MEDICINE HAT   MOCLDY    43  12  28 W25G36    29.95R
$$

REGIONAL REPORTS...SASKATCHEWAN

CITY           SKY/WX    TMP DP  RH WIND       PRES   REMARKS
SWIFT CURRENT  CLEAR     36  21  55 NW26G33   29.75F WCI  23
REGINA         MOCLDY    36  27  69 W31G38    29.63R WCI  22
SASKATOON      PTCLDY    36  23  60 W28G38    29.60R WCI  23
$$




USA.gov is the U.S. government's official web portal to all federal, state and local government web resources and services.